FW6664 Weather Reports


Display with metric or nautical units.
time (UTC)temp
F
wind
direction
speed
MPH
gust
MPH
rain 1hr
in
rain 24hr
in
rain mn
in
humidity
%
barometer
mb
20260902232347 78 235 7.0 0.0 0.00 0.00 0.00 33 1017.0
20260902232020 78 280 4.0 8.0 0.00 0.00 0.00 33 1017.0
20260902231845 78 223 4.0 0.0 0.00 0.00 0.00 33 1017.0
20260902231514 77 260 4.0 8.0 0.00 0.00 0.00 33 1017.0
20260902231341 77 291 5.0 0.0 0.00 0.00 0.00 33 1017.0
20260902231007 77 234 5.0 8.0 0.00 0.00 0.00 33 1017.0
20260902230855 78 240 8.0 0.0 0.00 0.00 0.00 33 1017.0
20260902230535 77 269 4.0 8.0 0.00 0.00 0.00 33 1017.0
20260902230351 78 224 5.0 0.0 0.00 0.00 0.00 33 1017.0
20260902230010 78 222 5.0 8.0 0.00 0.00 0.00 33 1017.0
20260902225829 78 220 4.0 0.0 0.00 0.00 0.00 33 1017.0
20260902225541 78 293 3.0 6.0 0.00 0.00 0.00 33 1017.0
20260902225343 79 229 8.0 0.0 0.00 0.00 0.00 33 1017.0
20260902225038 78 237 5.0 7.0 0.00 0.00 0.00 33 1017.0
20260902224841 79 229 5.0 0.0 0.00 0.00 0.00 33 1017.0
20260902224539 78 217 4.0 7.0 0.00 0.00 0.00 33 1017.0
20260902224337 78 156 2.0 0.0 0.00 0.00 0.00 33 1017.0
20260902224024 77 221 4.0 11.0 0.00 0.00 0.00 33 1017.0
20260902223856 78 273 9.0 0.0 0.00 0.00 0.00 33 1017.0
20260902223556 77 276 6.0 11.0 0.00 0.00 0.00 33 1017.0
20260902223332 78 227 8.0 0.0 0.00 0.00 0.00 33 1017.0
20260902223049 78 258 7.0 8.0 0.00 0.00 0.00 33 1017.0
20260902222827 78 262 4.0 0.0 0.00 0.00 0.00 33 1017.0
20260902222543 78 302 4.0 7.0 0.00 0.00 0.00 33 1017.0
20260902222325 79 278 7.0 0.0 0.00 0.00 0.00 33 1017.0
20260902222023 78 219 5.0 7.0 0.00 0.00 0.00 33 1017.0
20260902221827 79 244 5.0 0.0 0.00 0.00 0.00 33 1017.0
20260902221517 79 271 5.0 6.0 0.00 0.00 0.00 33 1017.0
20260902221341 79 242 5.0 0.0 0.00 0.00 0.00 33 1017.0
20260902221006 78 232 4.0 6.0 0.00 0.00 0.00 33 1017.0
20260902220837 78 181 4.0 0.0 0.00 0.00 0.00 33 1017.0
20260902220558 78 254 3.0 6.0 0.00 0.00 0.00 33 1017.0
20260902220501 78 209 4.0 6.0 0.00 0.00 0.00 33 1017.0
20260902220333 79 215 9.0 0.0 0.00 0.00 0.00 33 1017.0
20260902220051 79 210 5.0 8.0 0.00 0.00 0.00 33 1017.0
20260902215850 79 268 9.0 0.0 0.00 0.00 0.00 33 1017.0
20260902215527 78 235 6.0 8.0 0.00 0.00 0.00 33 1017.0
20260902215325 79 218 8.0 0.0 0.00 0.00 0.00 33 1017.0
20260902215019 79 278 6.0 6.0 0.00 0.00 0.00 33 1017.0
20260902214827 79 228 5.0 0.0 0.00 0.00 0.00 33 1017.0
20260902214515 79 237 4.0 8.0 0.00 0.00 0.00 33 1017.0
20260902214343 79 284 6.0 0.0 0.00 0.00 0.00 33 1017.0
20260902214008 78 226 3.0 9.0 0.00 0.00 0.00 33 1017.0
20260902213859 79 228 5.0 0.0 0.00 0.00 0.00 33 1017.0
20260902213535 78 254 6.0 9.0 0.00 0.00 0.00 33 1017.0
20260902213334 78 257 4.0 0.0 0.00 0.00 0.00 33 1017.0
20260902213034 78 278 3.0 6.0 0.00 0.00 0.00 33 1017.0
20260902212854 79 215 6.0 0.0 0.00 0.00 0.00 33 1017.0
20260902212600 78 235 5.0 8.0 0.00 0.00 0.00 33 1017.0
20260902212504 78 236 5.0 8.0 0.00 0.00 0.00 33 1017.0
20260902212346 79 219 10.0 0.0 0.00 0.00 0.00 33 1017.0
20260902212052 78 171 6.0 8.0 0.00 0.00 0.00 33 1017.0
20260902211838 79 215 4.0 0.0 0.00 0.00 0.00 33 1017.0
20260902211542 78 245 6.0 8.0 0.00 0.00 0.00 33 1017.0
20260902211355 79 255 7.0 0.0 0.00 0.00 0.00 33 1017.0
20260902211018 79 245 6.0 8.0 0.00 0.00 0.00 33 1017.0
20260902210831 79 224 5.0 0.0 0.00 0.00 0.00 33 1017.0
20260902210513 79 233 7.0 8.0 0.00 0.00 0.00 33 1017.0
20260902210331 79 234 3.0 0.0 0.00 0.00 0.00 33 1017.0
20260902210008 78 298 3.0 9.0 0.00 0.00 0.00 33 1017.0
20260902205846 79 224 9.0 0.0 0.00 0.00 0.00 33 1017.0
20260902205559 79 231 4.0 9.0 0.00 0.00 0.00 33 1017.0
20260902205504 79 204 6.0 9.0 0.00 0.00 0.00 33 1017.0
20260902205342 79 221 10.0 0.0 0.00 0.00 0.00 33 1017.0
20260902205051 79 214 6.0 9.0 0.00 0.00 0.00 33 1017.0
20260902204837 80 239 6.0 0.0 0.00 0.00 0.00 33 1017.0
20260902204544 80 266 7.0 9.0 0.00 0.00 0.00 33 1017.0
20260902204332 80 271 9.0 0.0 0.00 0.00 0.00 33 1017.0
20260902204041 79 223 4.0 7.0 0.00 0.00 0.00 33 1017.0
20260902203829 80 240 6.0 0.0 0.00 0.00 0.00 33 1017.0
20260902203534 80 254 5.0 9.0 0.00 0.00 0.00 33 1017.0
20260902203346 80 229 6.0 0.0 0.00 0.00 0.00 33 1017.0
20260902203029 79 284 7.0 9.0 0.00 0.00 0.00 33 1017.0
20260902202903 80 256 5.0 0.0 0.00 0.00 0.00 33 1017.0
20260902202558 79 229 5.0 9.0 0.00 0.00 0.00 33 1017.0
20260902202501 80 216 4.0 9.0 0.00 0.00 0.00 33 1017.0
20260902202338 80 225 5.0 0.0 0.00 0.00 0.00 33 1017.0
20260902202051 80 233 6.0 9.0 0.00 0.00 0.00 33 1017.0
20260902201834 80 279 5.0 0.0 0.00 0.00 0.00 33 1017.0
20260902201527 80 193 3.0 7.0 0.00 0.00 0.00 33 1017.0
20260902201333 80 262 1.0 0.0 0.00 0.00 0.00 33 1017.0
20260902201022 79 226 3.0 6.0 0.00 0.00 0.00 33 1017.0
20260902200830 80 149 3.0 0.0 0.00 0.00 0.00 33 1017.0
20260902200517 80 226 4.0 6.0 0.00 0.00 0.00 33 1017.0
20260902200329 81 214 4.0 0.0 0.00 0.00 0.00 33 1017.0
20260902200019 81 296 4.0 6.0 0.00 0.00 0.00 33 1017.0
20260902195829 81 257 4.0 0.0 0.00 0.00 0.00 33 1017.0
20260902195509 81 285 4.0 6.0 0.00 0.00 0.00 33 1017.0
20260902195326 82 256 2.0 0.0 0.00 0.00 0.00 33 1017.0
20260902195100 81 230 3.0 6.0 0.00 0.00 0.00 33 1017.0
20260902195002 81 279 2.0 6.0 0.00 0.00 0.00 33 1017.0
20260902194845 81 259 1.0 0.0 0.00 0.00 0.00 33 1017.0
20260902194530 81 230 3.0 6.0 0.00 0.00 0.00 33 1017.0
20260902194338 81 281 7.0 0.0 0.00 0.00 0.00 33 1017.0
20260902194022 81 291 4.0 8.0 0.00 0.00 0.00 33 1017.0
20260902193832 81 270 7.0 0.0 0.00 0.00 0.00 33 1017.0
20260902193517 81 237 6.0 8.0 0.00 0.00 0.00 33 1017.0
20260902193329 81 260 1.0 0.0 0.00 0.00 0.00 33 1017.0
20260902193012 81 291 5.0 6.0 0.00 0.00 0.00 33 1017.0
20260902192827 81 295 4.0 0.0 0.00 0.00 0.00 33 1017.0
20260902192506 80 300 4.0 6.0 0.00 0.00 0.00 33 1017.0
20260902192343 81 288 3.0 0.0 0.00 0.00 0.00 33 1017.0
20260902192039 80 269 5.0 6.0 0.00 0.00 0.00 33 1017.0
20260902191841 80 277 7.0 0.0 0.00 0.00 0.00 33 1017.0
20260902191534 80 280 3.0 6.0 0.00 0.00 0.00 33 1017.0
20260902191357 80 286 2.0 0.0 0.00 0.00 0.00 33 1017.0
20260902191101 80 218 2.0 4.0 0.00 0.00 0.00 33 1017.0
20260902191003 80 271 4.0 4.0 0.00 0.00 0.00 33 1017.0
20260902190852 81 257 6.0 0.0 0.00 0.00 0.00 33 1017.0
20260902190534 80 282 2.0 4.0 0.00 0.00 0.00 33 1017.0
20260902190328 80 278 5.0 0.0 0.00 0.00 0.00 33 1017.0
20260902190045 80 284 4.0 6.0 0.00 0.00 0.00 33 1017.0
20260902185846 80 292 5.0 0.0 0.00 0.00 0.00 33 1017.0
20260902185522 79 284 2.0 6.0 0.00 0.00 0.00 33 1017.0
20260902185341 80 201 1.0 0.0 0.00 0.00 0.00 33 1017.0
20260902185013 79 271 3.0 4.0 0.00 0.00 0.00 33 1017.0
20260902184833 80 272 6.0 0.0 0.00 0.00 0.00 33 1017.0
20260902184505 79 282 4.0 4.0 0.00 0.00 0.00 33 1017.0
20260902184329 80 287 12.0 0.0 0.00 0.00 0.00 33 1017.0
20260902170021 72 304 0.0 0.0 0.00 0.00 0.00 33 1017.0
20260902165516 71 309 0.0 0.0 0.00 0.00 0.00 33 1017.0
20260902151348 66 85 0.0 0.0 0.00 0.00 0.00 33 1017.0
20260902151058 65 88 0.0 0.0 0.00 0.00 0.00 33 1017.0
20260902150825 66 107 0.0 0.0 0.00 0.00 0.00 33 1017.0
20260902150551 65 107 0.0 0.0 0.00 0.00 0.00 33 1017.0
20260902150339 65 107 0.0 0.0 0.00 0.00 0.00 33 1017.0
20260902150040 64 107 0.0 0.0 0.00 0.00 0.00 33 1017.0
20260902090343 64 299 0.0 0.0 0.00 0.00 0.00 33 1017.0
20260902090022 63 299 1.0 1.0 0.00 0.00 0.00 33 1017.0
20260902055332 66 299 2.0 0.0 0.00 0.00 0.00 33 1017.0
20260902055031 65 299 2.0 3.0 0.00 0.00 0.00 33 1017.0
20260902054829 66 299 3.0 0.0 0.00 0.00 0.00 33 1017.0
20260902054527 65 299 1.0 1.0 0.00 0.00 0.00 33 1017.0
20260902053043 65 299 2.0 4.0 0.00 0.00 0.00 33 1017.0
20260902052830 66 299 3.0 0.0 0.00 0.00 0.00 33 1017.0
20260902052537 65 299 2.0 4.0 0.00 0.00 0.00 33 1017.0
20260902052349 66 299 4.0 0.0 0.00 0.00 0.00 33 1017.0
20260902052012 65 299 3.0 3.0 0.00 0.00 0.00 33 1017.0
20260902051825 66 299 4.0 0.0 0.00 0.00 0.00 33 1017.0
20260902051555 66 299 2.0 2.0 0.00 0.00 0.00 33 1017.0
20260902051333 66 299 2.0 0.0 0.00 0.00 0.00 33 1017.0
20260902051046 66 299 2.0 4.0 0.00 0.00 0.00 33 1017.0
20260902050853 66 299 4.0 0.0 0.00 0.00 0.00 33 1017.0
20260902050519 66 299 2.0 5.0 0.00 0.00 0.00 33 1017.0
20260902050328 66 299 4.0 0.0 0.00 0.00 0.00 33 1017.0
20260902050017 66 299 3.0 5.0 0.00 0.00 0.00 33 1017.0
20260902045847 66 299 4.0 0.0 0.00 0.00 0.00 33 1017.0
20260902045549 66 299 4.0 5.0 0.00 0.00 0.00 33 1017.0
20260902045341 66 299 4.0 0.0 0.00 0.00 0.00 33 1017.0
20260902045039 66 299 3.0 4.0 0.00 0.00 0.00 33 1017.0
20260902044858 66 299 3.0 0.0 0.00 0.00 0.00 33 1017.0
20260902044512 66 299 2.0 2.0 0.00 0.00 0.00 33 1017.0
20260902044336 67 299 3.0 0.0 0.00 0.00 0.00 33 1017.0
20260902044005 66 299 1.0 2.0 0.00 0.00 0.00 33 1017.0
20260902043833 67 299 2.0 0.0 0.00 0.00 0.00 33 1017.0
20260902043557 66 299 2.0 3.0 0.00 0.00 0.00 33 1017.0
20260902043330 67 299 3.0 0.0 0.00 0.00 0.00 33 1017.0
20260902043053 66 299 2.0 3.0 0.00 0.00 0.00 33 1017.0
20260902042826 67 299 2.0 0.0 0.00 0.00 0.00 33 1017.0
20260902042546 67 299 2.0 3.0 0.00 0.00 0.00 33 1017.0
20260902042343 67 299 4.0 0.0 0.00 0.00 0.00 33 1017.0
20260902042041 67 299 2.0 3.0 0.00 0.00 0.00 33 1017.0
20260902041841 67 299 2.0 0.0 0.00 0.00 0.00 33 1017.0
20260902041535 67 299 2.0 3.0 0.00 0.00 0.00 33 1017.0
20260902041336 67 299 4.0 0.0 0.00 0.00 0.00 33 1017.0
20260902041030 67 299 1.0 3.0 0.00 0.00 0.00 33 1017.0
20260902040833 67 300 3.0 0.0 0.00 0.00 0.00 33 1017.0
20260902040526 67 299 2.0 4.0 0.00 0.00 0.00 33 1017.0
20260902040332 68 299 2.0 0.0 0.00 0.00 0.00 33 1017.0
20260902040020 67 299 2.0 5.0 0.00 0.00 0.00 33 1017.0
20260902035828 68 299 3.0 0.0 0.00 0.00 0.00 33 1017.0
20260902035512 67 299 2.0 5.0 0.00 0.00 0.00 33 1017.0
20260902035344 68 299 5.0 0.0 0.00 0.00 0.00 33 1017.0
20260902035007 67 299 3.0 5.0 0.00 0.00 0.00 33 1017.0
20260902034839 68 299 3.0 0.0 0.00 0.00 0.00 33 1017.0
20260902034556 67 299 3.0 5.0 0.00 0.00 0.00 33 1017.0
20260902034335 68 299 5.0 0.0 0.00 0.00 0.00 33 1017.0
20260902034050 68 299 3.0 4.0 0.00 0.00 0.00 33 1017.0
20260902033832 68 299 3.0 0.0 0.00 0.00 0.00 33 1017.0
20260902033524 68 299 3.0 4.0 0.00 0.00 0.00 33 1017.0
20260902033331 68 299 3.0 0.0 0.00 0.00 0.00 33 1017.0
20260902033033 68 299 3.0 5.0 0.00 0.00 0.00 33 1017.0
20260902032827 69 299 4.0 0.0 0.00 0.00 0.00 33 1017.0
20260902032515 68 292 4.0 5.0 0.00 0.00 0.00 33 1017.0
20260902032404 69 291 6.0 0.0 0.00 0.00 0.00 33 1017.0
20260902032043 68 291 4.0 5.0 0.00 0.00 0.00 33 1017.0
20260902031840 69 291 4.0 0.0 0.00 0.00 0.00 33 1017.0
20260902031539 69 294 4.0 5.0 0.00 0.00 0.00 33 1017.0
20260902031341 69 302 6.0 0.0 0.00 0.00 0.00 33 1017.0
20260902031034 69 290 4.0 6.0 0.00 0.00 0.00 33 1017.0
20260902030838 70 289 4.0 0.0 0.00 0.00 0.00 33 1017.0
20260902030528 69 287 4.0 6.0 0.00 0.00 0.00 33 1017.0
20260902030337 70 293 5.0 0.0 0.00 0.00 0.00 33 1017.0
20260902030024 69 297 4.0 6.0 0.00 0.00 0.00 33 1017.0
20260902025834 70 282 3.0 0.0 0.00 0.00 0.00 33 1017.0
20260902025521 70 279 4.0 6.0 0.00 0.00 0.00 33 1017.0
20260902025333 70 275 6.0 0.0 0.00 0.00 0.00 33 1017.0
20260902025019 70 293 6.0 7.0 0.00 0.00 0.00 33 1017.0
20260902024831 71 287 6.0 0.0 0.00 0.00 0.00 33 1017.0
20260902024509 70 290 5.0 7.0 0.00 0.00 0.00 33 1017.0
20260902024325 71 288 6.0 0.0 0.00 0.00 0.00 33 1017.0
20260902024004 71 284 6.0 7.0 0.00 0.00 0.00 33 1017.0
20260902023843 71 274 9.0 0.0 0.00 0.00 0.00 33 1017.0
20260902023536 71 291 5.0 7.0 0.00 0.00 0.00 33 1017.0
20260902023341 72 288 7.0 0.0 0.00 0.00 0.00 33 1017.0
20260902023025 72 298 3.0 7.0 0.00 0.00 0.00 33 1017.0
20260902022834 72 275 4.0 0.0 0.00 0.00 0.00 33 1017.0
20260902022522 72 293 6.0 7.0 0.00 0.00 0.00 33 1017.0
20260902022352 73 295 6.0 0.0 0.00 0.00 0.00 33 1017.0
20260902022051 73 298 6.0 7.0 0.00 0.00 0.00 33 1017.0
20260902021827 73 271 7.0 0.0 0.00 0.00 0.00 33 1017.0
20260902021601 73 296 4.0 6.0 0.00 0.00 0.00 33 1017.0
20260902021342 74 275 3.0 0.0 0.00 0.00 0.00 33 1017.0
20260902021039 74 302 4.0 6.0 0.00 0.00 0.00 33 1017.0
20260902020839 74 305 3.0 0.0 0.00 0.00 0.00 33 1017.0
20260902020535 74 292 4.0 6.0 0.00 0.00 0.00 33 1017.0
20260902020336 75 286 6.0 0.0 0.00 0.00 0.00 33 1017.0
20260902020025 75 300 5.0 6.0 0.00 0.00 0.00 33 1017.0
20260902015852 76 287 9.0 0.0 0.00 0.00 0.00 33 1017.0
20260902015557 76 299 5.0 6.0 0.00 0.00 0.00 33 1017.0
20260902015349 76 287 5.0 0.0 0.00 0.00 0.00 33 1017.0
20260902015032 76 279 3.0 6.0 0.00 0.00 0.00 33 1017.0
20260902014827 77 285 4.0 0.0 0.00 0.00 0.00 33 1017.0
20260902014536 77 291 5.0 6.0 0.00 0.00 0.00 33 1017.0
20260902014326 77 294 4.0 0.0 0.00 0.00 0.00 33 1017.0
20260902014028 77 292 4.0 5.0 0.00 0.00 0.00 33 1017.0
20260902013827 78 294 6.0 0.0 0.00 0.00 0.00 33 1017.0
20260902013518 77 269 3.0 6.0 0.00 0.00 0.00 33 1017.0
20260902013324 78 276 6.0 0.0 0.00 0.00 0.00 33 1017.0
20260902013013 77 291 3.0 6.0 0.00 0.00 0.00 33 1017.0
20260902012840 78 281 3.0 0.0 0.00 0.00 0.00 33 1017.0
20260902012506 77 306 4.0 6.0 0.00 0.00 0.00 33 1017.0
20260902012336 78 261 5.0 0.0 0.00 0.00 0.00 33 1017.0
20260902012058 78 290 5.0 8.0 0.00 0.00 0.00 33 1017.0
20260902012002 78 269 5.0 8.0 0.00 0.00 0.00 33 1017.0
20260902011855 78 296 6.0 0.0 0.00 0.00 0.00 33 1017.0
20260902011537 78 286 4.0 8.0 0.00 0.00 0.00 33 1017.0
20260902011329 79 293 9.0 0.0 0.00 0.00 0.00 33 1017.0
20260902011023 79 293 6.0 10.0 0.00 0.00 0.00 33 1017.0
20260902010824 79 266 3.0 0.0 0.00 0.00 0.00 33 1017.0
20260902010519 79 264 5.0 10.0 0.00 0.00 0.00 33 1017.0
20260902010324 80 290 7.0 0.0 0.00 0.00 0.00 33 1017.0
20260902010012 80 282 6.0 6.0 0.00 0.00 0.00 33 1017.0
20260902005840 80 306 6.0 0.0 0.00 0.00 0.00 33 1017.0
20260902005506 80 291 6.0 6.0 0.00 0.00 0.00 33 1017.0
20260902005336 81 295 7.0 0.0 0.00 0.00 0.00 33 1017.0
20260902005037 80 272 4.0 6.0 0.00 0.00 0.00 33 1017.0
20260902004832 81 277 6.0 0.0 0.00 0.00 0.00 33 1017.0
20260902004539 80 279 4.0 7.0 0.00 0.00 0.00 33 1017.0
20260902004326 81 293 3.0 0.0 0.00 0.00 0.00 33 1017.0
20260902004023 80 298 6.0 7.0 0.00 0.00 0.00 33 1017.0
20260902003844 81 302 7.0 0.0 0.00 0.00 0.00 33 1017.0
20260902003518 81 292 5.0 6.0 0.00 0.00 0.00 33 1017.0
20260902003341 82 298 2.0 0.0 0.00 0.00 0.00 33 1017.0
20260902003011 81 291 4.0 6.0 0.00 0.00 0.00 33 1017.0
20260902002835 82 296 4.0 0.0 0.00 0.00 0.00 33 1017.0
20260902002600 81 297 3.0 8.0 0.00 0.00 0.00 33 1017.0
20260902002504 81 282 3.0 8.0 0.00 0.00 0.00 33 1017.0
20260902002333 82 299 5.0 0.0 0.00 0.00 0.00 33 1017.0
20260902002056 81 285 4.0 8.0 0.00 0.00 0.00 33 1017.0
20260902001830 82 230 4.0 0.0 0.00 0.00 0.00 33 1017.0
20260902001552 82 277 4.0 8.0 0.00 0.00 0.00 33 1017.0
20260902001328 82 292 7.0 0.0 0.00 0.00 0.00 33 1017.0
20260902001046 81 254 3.0 7.0 0.00 0.00 0.00 33 1017.0
20260902000829 82 277 11.0 0.0 0.00 0.00 0.00 33 1017.0
20260902000542 81 287 5.0 7.0 0.00 0.00 0.00 33 1017.0
20260902000349 82 290 8.0 0.0 0.00 0.00 0.00 33 1017.0
20260902000021 81 261 6.0 7.0 0.00 0.00 0.00 33 1017.0
20260901235824 81 261 4.0 0.0 0.00 0.00 0.00 33 1017.0
20260901235511 81 273 6.0 6.0 0.00 0.00 0.00 33 1017.0
20260901235342 82 215 9.0 0.0 0.00 0.00 0.00 33 1017.0
20260901235006 81 270 6.0 9.0 0.00 0.00 0.00 33 1017.0
20260901234841 82 227 5.0 0.0 0.00 0.00 0.00 33 1017.0
20260901234614 81 282 6.0 9.0 0.00 0.00 0.00 33 1017.0
20260901234335 82 277 8.0 0.0 0.00 0.00 0.00 33 1017.0
20260901234051 81 256 4.0 6.0 0.00 0.00 0.00 33 1017.0
20260901233854 82 284 7.0 0.0 0.00 0.00 0.00 33 1017.0
20260901233527 82 210 3.0 8.0 0.00 0.00 0.00 33 1017.0
20260901233332 82 264 9.0 0.0 0.00 0.00 0.00 33 1017.0
20260901233019 82 276 7.0 12.0 0.00 0.00 0.00 33 1017.0
20260901232826 83 212 6.0 0.0 0.00 0.00 0.00 33 1017.0
20260901232549 82 270 8.0 12.0 0.00 0.00 0.00 33 1017.0